Location: Woodland Hills
(37.6076°N, 88.9445°W)
Time: 04:01:49
(UTC+00:00)

Daily predictions for brighter satellites

Satellite Brightness Start Highest point End
(mag) Time Altitude Azimuth Time Altitude Azimuth Time Altitude Azimuth
Ariane Rocket 4.4 00:06:01 19° NE 00:06:01 19° NE 00:08:25 10° NNE
YAOGAN 1 2.9 00:01:09 10° SE 00:05:12 41° ENE 00:09:16 10° N
CSL-04 Debris 4.4 00:01:02 10° SE 00:06:17 48° ENE 00:11:33 10° N
Cosmos 1633 2.9 00:06:19 10° N 00:09:46 39° E 00:13:11 10° SSE
Cosmos 1656 3.6 00:05:06 10° SSW 00:10:41 82° ESE 00:16:13 10° NNE
Cosmos 1607 4.0 00:06:30 10° NNW 00:12:35 53° NE 00:17:51 14° SE
Cosmos 2219 3.1 00:07:43 10° NNW 00:13:22 87° ENE 00:18:59 10° SSE
Cosmos 923 Rocket 4.0 00:12:10 10° S 00:17:17 57° ESE 00:20:43 21° NNE
YAOGAN 6 2.4 00:14:58 10° SSE 00:18:29 87° WSW 00:22:00 10° NNW
FengYun 1-2 T 4.2 00:16:16 10° SSE 00:21:50 86° WSW 00:27:22 10° NNW
Cosmos 1862 3.7 00:18:13 10° N 00:27:50 - SSE 00:21:15 40° NE
SKYMED 2 4.4 00:23:22 10° N 00:27:34 50° WNW 00:31:45 10° SSW
CSL-04 Rocket 3.5 00:22:18 10° SSE 00:27:41 75° ENE 00:33:01 10° N
Cosmos 2034 Rocket 4.1 00:21:39 10° N 00:27:53 55° E 00:34:06 10° SSE
Cosmos 1513 Rocket 4.4 00:21:30 10° N 00:27:56 77° E 00:34:17 10° S
USA 116 4.2 00:24:52 10° N 00:29:25 81° WNW 00:34:26 10° SSW
Cosmos 1980 Rocket 2.8 00:26:00 10° SSE 00:30:29 34° ESE 00:30:29 34° ESE
Cosmos 1356 Rocket 4.5 00:27:16 10° SSW 00:31:12 45° WNW 00:35:13 10° N
Cosmos 2346 Rocket 4.5 00:27:07 10° S 00:33:14 59° E 00:39:20 10° NNE
Lacrosse 4 Rocket 1.2 00:30:55 10° SSW 00:35:01 85° ESE 00:35:33 66° NE
Cosmos 2227 Rocket 2.1 00:31:12 10° NNW 00:36:54 82° ENE 00:42:33 10° SSE
Cosmos 2297 Rocket 2.1 00:31:49 10° NNW 00:37:30 90° ENE 00:43:09 10° SSE
NOSS 2-3 (C) 3.5 00:33:56 10° SSW 00:38:08 68° ESE 00:38:26 66° E
Tsikada Rocket 4.0 00:36:04 10° S 00:42:14 60° E 00:48:31 10° NNE
Cosmos 2369 3.7 00:39:45 10° SSW 00:45:24 84° WNW 00:48:30 28° NNE
Meteor 2-11 Rocket 4.3 00:45:37 10° N 00:51:46 81° E 00:57:53 10° S
Cosmos 1816 Rocket 4.4 00:47:31 10° S 00:53:49 79° E 01:00:12 10° N
Cosmos 2360 4.0 00:49:44 10° SSW 00:55:22 70° ESE 00:55:35 70° E
CZ-4 R/B 3.1 00:52:09 10° SSW 00:56:00 35° W 00:59:49 10° NNW
Cosmos 2082 3.5 00:57:00 10° NNW 01:02:39 83° ENE 01:02:42 83° E
Cosmos 2278 3.7 01:00:37 10° SSW 01:06:16 77° WNW 01:07:23 58° N
Cosmos 1697 Rocket 3.3 01:06:29 10° SW 01:12:00 54° WNW 01:14:08 35° N
Cosmos 1633 Rocket 4.2 01:08:54 10° NNW 01:13:04 42° W 01:17:13 10° SSW
BREEZE-M DEB (TANK) 4.4 01:16:11 10° SW 01:21:25 77° SE 01:46:43 10° NE
H-II Stage 2 4.3 00:48:20 10° WSW 01:21:50 45° S 01:23:33 41° SSE
ATLAS 5 CENTAUR R/B 3.0 01:20:54 10° NW 01:26:51 55° WSW 01:28:51 41° SSW
USA 215 3.6 01:31:04 53° N 01:31:04 53° N 01:36:15 10° NW
H-2A R/B 4.1 00:39:57 10° W 01:42:10 66° SSW 01:45:00 54° SSE
ATLAS 5 CENTAUR R/B 4.4 01:42:03 10° SW 01:48:58 33° SSE 01:49:14 33° SSE
Cosmos 1980 Rocket 4.3 02:10:04 10° WSW 02:12:21 21° WSW 02:12:21 21° WSW
NOSS 3-1 (A) 4.4 09:25:33 60° SSE 09:25:33 60° SSE 09:32:29 10° SSE
Lacrosse 5 3.3 09:44:47 34° ENE 09:44:47 34° ENE 09:47:46 10° NE
MSX 4.5 09:42:06 10° NNE 09:46:25 49° NE 09:46:25 49° NE
CZ-2C R/B 3.7 09:43:49 10° NNE 09:48:19 36° E 09:49:13 33° ESE
Milstar 3 4.1 09:51:51 33° SSW 09:51:51 33° SSW 09:57:44 10° SE
Meteor 2-10 Rocket 4.5 09:55:10 43° SSE 09:55:10 43° SSE 09:58:59 10° SSE
Atlas Centaur 2 4.1 09:58:17 10° SE 09:58:17 10° SE 09:58:20 10° SE
CZ-3B R/B 4.3 09:56:31 15° SSE 09:56:31 15° SSE 09:59:23 10° ESE
Cosmos 1934 Rocket 4.1 09:50:43 10° S 09:56:56 76° E 10:03:18 10° N
Cosmos 1697 Rocket 3.4 10:05:10 32° N 10:07:27 50° ENE 10:12:52 10° SE
Meteor 1-11 4.1 10:10:45 61° S 10:11:50 88° E 10:17:38 10° N
PAYLOAD A 4.0 10:08:34 10° NNE 10:13:56 87° ESE 10:14:45 65° S
Cosmos 2221 3.0 10:22:23 39° NNE 10:23:46 60° E 10:28:06 10° SSE
Cosmos 2082 Rocket 2.1 10:22:54 44° SSW 10:24:50 87° WNW 10:30:35 10° NNE
Cosmos 1842 Rocket 4.3 10:28:09 42° S 10:28:09 42° S 10:31:05 10° S
Cosmos 2123 Rocket 3.8 10:22:40 10° N 10:28:52 77° W 10:35:03 10° S
Cosmos 1605 Rocket 3.8 10:32:37 10° S 10:38:53 78° W 10:45:04 10° N
OAO 2 Rocket 3.7 10:37:40 44° SW 10:38:53 56° S 10:43:50 10° E
Lacrosse 4 Rocket 3.1 10:41:40 21° SSW 10:41:40 21° SSW 10:43:16 10° S
SJ 16-02 2.4 10:37:49 10° S 10:41:59 45° ESE 10:46:11 10° NNE
SL-4 R/B 4.5 10:45:34 14° N 10:46:22 15° N 10:49:08 10° NE
Cosmos 923 Rocket 4.0 10:43:29 16° NNW 10:47:39 83° ENE 10:52:52 10° SSE
Cosmos 1833 Rocket 3.2 10:48:21 36° NW 10:48:21 36° NW 10:53:05 10° N
Cosmos 1656 4.0 10:48:08 39° WSW 10:48:08 39° WSW 10:52:55 10° S
ALOS 3.9 10:45:39 10° NNE 10:49:56 35° E 10:54:11 10° SSE
OAO 3 Rocket 3.9 10:49:05 30° SW 10:50:59 47° SSE 10:55:32 10° E
Okean O Rocket 3.7 10:48:12 10° NE 10:52:00 29° E 10:55:47 10° SSE
STARLINK-43 3.2 10:53:33 68° W 10:53:51 74° NW 10:57:35 10° NE
Centaur D-1AR AC-39 4.2 10:54:22 10° SW 10:57:53 19° SSE 11:05:35 10° ESE
SL-16 R/B 4.3 10:55:43 10° N 11:00:10 23° NE 11:04:37 10° ESE
ISS -3.7 11:00:17 56° SW 11:00:23 57° SW 11:03:40 10° SE
Meteor 1-31 Rocket 4.1 10:57:24 10° N 10:59:10 24° NNW 10:59:10 24° NNW
GENESIS II 4.3 11:01:34 25° NNW 11:03:52 77° ENE 11:07:52 10° SE
Cosmos 1869 3.2 11:03:00 10° N 11:06:56 88° E 11:10:51 10° S
Cosmos 1898 Rocket 3.4 11:02:06 10° SSW 11:07:18 81° WNW 11:12:35 10° NNE
Meteor PRIRODA 3.6 11:03:43 10° N 11:07:19 55° WNW 11:10:53 10° SSW
Cosmos 1484 Rocket 2.7 11:04:34 10° N 11:08:35 78° WNW 11:12:35 10° SSW
Chandra Rocket (1) 4.4 10:58:06 18° WSW 11:10:24 48° SSW 11:15:40 10° ESE
Cosmos 1980 Rocket 2.2 11:04:50 10° NNW 11:10:34 89° WSW 11:16:15 10° SSE
Cosmos 2322 Rocket 4.3 11:07:29 10° N 11:12:02 24° ENE 11:16:36 10° ESE
Meteor 2-2 Rocket 4.2 11:08:43 10° NNW 11:14:15 59° W 11:19:45 10° S
MOS 1-B 4.3 11:10:18 10° NNE 11:16:08 82° WNW 11:21:55 10° SSW
Gbstr 26 Del rocket 3.0 11:15:12 30° W 11:16:39 46° NW 11:20:15 10° NE
USA 116 4.1 11:17:06 10° SSE 11:20:05 49° ENE 11:23:15 10° N
Cosmos 1892 2.7 11:16:21 10° S 11:20:08 83° E 11:23:57 10° N
SKYMED 2 3.5 11:15:54 10° S 11:20:14 84° WSW 11:24:36 10° NNW
ASTEX 1 3.8 11:17:37 10° SSW 11:22:11 38° W 11:26:48 10° NNW
NOSS 3-3 (A) 3.9 11:16:25 10° SW 11:22:15 64° NW 11:28:45 10° NNE
NOSS 3-3 (C) 3.9 11:16:39 10° SW 11:22:24 64° NW 11:28:48 10° NNE
Cosmos 1937 Rocket 3.4 11:17:24 10° SSW 11:22:34 82° WNW 11:27:43 10° NNE
COSMOS 2455 4.2 11:18:16 10° NNW 11:23:48 36° NE 11:29:16 10° ESE
Cosmos 2369 4.4 11:22:24 17° NW 11:25:57 32° WSW 11:30:56 10° SSW
Lacrosse 5 2.9 11:24:02 21° WNW 11:26:02 27° NW 11:30:19 10° NNE
CZ-2C R/B 3.5 11:22:34 10° NNW 11:26:16 22° WNW 11:28:34 16° WSW
Cosmos 1459 Rocket 3.9 11:21:55 10° S 11:28:02 86° W 11:34:19 10° N
NOAA 6 4.3 11:24:53 10° NNE 11:30:01 74° ESE 11:35:07 10° S
Cosmos 2016 Rocket 4.4 11:24:29 10° S 11:30:37 68° E 11:36:52 10° NNE
Cosmos 1408 3.4 11:29:26 10° S 11:33:03 55° E 11:36:40 10° NNE
Helios 1A Rocket 2.8 11:35:38 10° N 11:39:44 72° WNW 11:43:47 10° SSW
CZ-4B R/B 3.2 11:35:26 10° NNE 11:40:50 87° WNW 11:46:19 10° SSW
PAYLOAD B 4.2 11:35:42 10° N 11:41:09 64° WNW 11:46:33 10° SSW
Atlas Centaur 2 3.6 11:43:00 10° SSW 11:43:31 10° SSW 11:44:02 10° SSW
Cosmos 2100 Rocket 4.0 11:38:52 10° SSW 11:44:58 57° W 11:51:03 10° N
Cosmos 1151 Rocket 3.7 11:41:04 10° N 11:45:24 59° E 11:49:42 10° SSE
STARLINK-80 3.8 11:41:51 10° WSW 11:45:27 42° NW 11:49:07 10° NE
USA 267 3.6 11:38:53 10° NE 11:45:27 73° SE 11:51:58 10° SW
SL-27 R/B 3.7 11:46:48 10° WSW 11:49:15 19° WNW 11:51:42 10° NNW
Cosmos 1825 2.6 11:46:12 10° S 11:49:55 65° E 11:53:39 10° NNE
STARLINK-61 3.7 11:46:32 10° SW 11:50:33 76° SE 11:54:34 10° NE
Cosmos 1697 Rocket 3.9 11:46:59 10° NW 11:50:58 20° W 11:54:55 10° SW
Cosmos 2058 4.2 11:48:38 10° SW 11:51:50 21° WNW 11:55:03 10° NNW
COSMOS 2487 3.6 11:48:33 10° S 11:51:53 48° ESE 11:55:13 10° NNE
Okean 3 Rocket 4.1 11:48:20 10° SSW 11:52:34 38° WNW 11:56:47 10° N
Cosmos 1408 Rocket 3.4 11:48:22 10° S 11:52:39 81° W 11:56:59 10° N
